Theta_e
339 343 350 352 350 348 352 353 354 353 354 355 356 355 354 354 353 354 352 351 352 351 352 352 351 350 348 348 348 349 348 347 345 342 339 339 343 338 330 329 325 330 326 326 328 330 331 331 328 326 327 326 329 329 333 334 331 324 328 332 329 330 332
337 340 344 348 349 353 355 355 353 353 355 356 355 355 354 353 353 351 352 351 352 351 351 350 350 349 348 347 348 348 346 344 344 345 342 345 344 339 335 332 327 331 332 328 327 331 333 328 330 329 328 327 328 333 328 330 332 330 331 330 331 331 330
337 339 349 349 350 352 352 351 347 349 354 355 355 354 353 353 351 352 352 351 351 351 350 350 349 348 347 347 347 345 345 344 341 338 335 333 333 331 330 333 329 326 325 325 328 327 329 329 332 329 327 326 323 330 333 333 334 329 330 332 330 329 331
347 345 350 352 353 354 352 351 350 351 352 355 355 354 353 353 352 352 351 350 350 350 348 348 348 347 347 346 345 344 343 341 339 337 335 335 333 329 329 331 331 329 326 324 325 327 326 326 326 334 330 328 329 327 329 329 329 331 331 332 329 329 329
348 349 350 351 351 353 351 353 353 353 352 356 356 355 353 354 352 350 350 352 350 349 348 349 348 347 347 346 344 343 341 338 338 338 339 336 332 331 327 325 325 326 332 329 329 329 329 327 325 327 327 330 327 330 329 326 327 330 329 328 327 326 322
347 347 350 352 354 354 354 353 355 354 353 354 355 354 353 352 351 350 350 352 349 350 349 348 347 347 345 345 344 342 342 342 347 341 333 331 329 325 325 324 326 328 324 324 326 326 327 326 329 327 326 325 322 323 324 324 323 326 331 332 330 326 322
347 349 349 352 355 354 353 353 352 355 355 356 356 355 352 351 350 350 350 348 348 347 346 345 345 345 344 345 343 343 342 344 337 333 335 329 328 325 325 326 327 324 325 329 330 329 327 327 331 327 323 322 324 322 326 331 330 328 333 334 333 328 329
347 346 346 349 352 353 353 354 353 354 356 356 353 353 351 351 351 350 348 347 347 346 344 343 342 344 344 342 342 340 337 339 335 335 333 332 332 325 324 323 324 327 327 325 329 329 324 325 324 327 327 324 323 324 324 329 331 323 328 328 329 326 320
347 347 345 347 348 350 353 354 355 354 354 353 352 351 352 351 351 348 347 348 347 344 343 343 342 343 343 342 341 346 343 341 335 330 329 327 331 327 323 323 326 327 325 323 324 324 325 325 325 327 326 327 329 331 326 329 327 329 330 329 329 327 322
346 345 348 348 351 352 355 354 354 353 352 351 351 351 351 347 344 343 343 344 345 343 343 343 343 341 341 341 341 340 337 333 332 331 328 327 328 327 324 325 325 326 326 331 329 326 326 329 334 332 333 327 327 326 331 330 328 327 329 326 328 327 329
345 346 348 348 350 351 352 352 351 350 350 349 348 349 346 342 341 342 342 341 339 340 342 342 342 341 340 338 338 336 334 331 331 333 330 330 328 327 325 324 323 325 323 327 326 327 329 330 334 334 335 327 324 325 330 330 327 328 325 325 326 328 324
345 346 349 348 349 350 349 349 350 348 346 344 343 341 339 339 338 338 338 339 339 338 338 339 339 337 339 336 332 333 333 331 331 330 330 327 325 327 324 325 326 325 325 328 327 328 328 331 333 328 327 325 326 324 325 328 328 334 330 329 326 328 326
343 345 348 348 346 347 347 347 345 343 342 340 338 338 338 337 335 335 336 336 338 337 337 337 337 337 335 334 331 330 328 326 325 326 326 324 326 326 328 325 324 325 327 330 330 328 325 324 331 328 325 328 325 325 328 326 324 336 331 330 330 328 328
344 345 348 348 345 344 344 344 344 342 339 338 337 337 337 336 335 334 334 335 335 336 336 336 336 335 335 332 328 329 326 327 325 324 329 331 332 330 325 325 327 328 330 332 332 328 323 323 322 324 326 325 325 327 334 333 330 331 333 329 328 328 327
341 344 345 344 343 343 343 342 342 340 337 336 336 334 334 333 333 334 335 336 336 337 336 336 335 334 332 329 329 329 329 329 327 327 331 334 332 332 331 327 327 331 330 330 329 327 329 328 323 325 326 327 329 330 331 333 330 330 327 327 327 330 331
342 342 343 344 342 341 342 341 340 337 336 334 333 332 331 331 331 332 333 333 335 336 337 337 334 332 330 329 329 330 330 331 329 328 329 330 329 333 335 330 331 328 328 330 332 326 337 332 329 327 325 326 327 327 326 326 325 331 329 327 331 331 331
341 342 342 343 344 341 340 340 340 336 333 332 331 330 330 331 332 333 333 333 334 335 335 334 334 333 330 329 330 333 333 332 330 330 333 331 331 332 334 333 328 331 330 330 330 328 330 335 328 331 326 326 325 324 326 325 327 329 327 326 327 331 333
340 341 342 343 344 341 340 339 338 334 331 331 330 331 331 331 332 333 333 335 335 336 336 337 335 332 332 332 333 333 332 330 330 331 332 331 332 333 333 331 329 333 330 329 328 333 331 330 330 333 332 330 330 327 326 328 331 332 328 328 328 328 333
336 342 343 343 343 340 339 338 336 332 332 332 332 332 333 334 333 333 335 335 336 336 336 335 333 333 332 333 333 333 332 334 330 330 330 331 332 332 333 334 329 331 330 330 330 331 331 334 331 334 334 331 333 331 327 327 331 332 331 332 331 330 329
337 341 345 343 344 341 339 337 336 334 334 334 334 334 334 335 334 334 336 337 336 334 333 334 333 332 332 333 332 332 333 332 331 330 331 331 331 330 328 329 329 327 327 331 334 334 331 329 332 332 332 332 331 333 329 328 330 333 332 331 332 330 330
339 341 345 343 343 341 339 337 336 335 334 334 334 334 333 333 335 336 336 334 332 331 333 332 331 331 331 331 331 331 332 331 331 329 330 330 331 331 328 328 328 328 329 327 330 332 333 332 330 332 333 333 331 328 327 327 333 332 331 334 333 332 330
337 339 343 344 345 343 339 337 336 336 335 336 335 334 334 333 335 335 333 333 331 332 332 332 331 330 331 330 330 331 332 330 330 329 330 330 330 329 328 330 331 329 332 330 327 326 331 333 334 330 332 333 331 331 328 331 331 331 332 333 333 331 330
340 342 346 348 346 342 341 340 339 339 338 336 335 334 334 335 335 334 332 332 331 332 331 331 330 330 331 330 329 331 331 330 329 328 328 329 327 328 328 328 329 331 332 330 328 329 329 331 331 333 331 333 332 332 332 329 332 329 329 332 331 331 330
342 345 347 347 345 342 341 340 341 340 338 336 335 336 336 336 336 335 333 332 331 332 331 330 329 330 331 329 330 331 331 331 331 329 328 327 328 324 329 329 331 331 332 330 329 329 328 333 332 334 335 330 331 330 329 329 335 327 327 327 330 332 329
340 346 348 347 343 341 340 340 340 339 338 336 335 336 337 337 336 333 332 332 331 332 330 330 330 330 329 329 330 331 331 330 330 329 328 326 328 327 329 329 330 330 334 332 331 331 333 330 331 334 335 334 333 329 330 332 337 325 326 326 328 331 331
341 345 346 348 346 344 341 340 339 337 336 334 335 336 337 336 335 334 332 331 331 331 331 332 333 333 332 332 332 331 331 327 331 329 329 328 330 330 330 332 330 332 330 331 328 327 328 331 329 332 333 335 335 329 333 333 333 336 323 324 326 330 332
347 346 346 346 345 345 341 339 338 337 336 336 336 337 336 336 334 333 333 333 332 331 333 335 336 335 334 333 332 332 332 331 332 330 331 329 329 328 330 331 330 330 329 329 329 329 332 332 333 332 332 331 333 334 335 330 333 336 324 322 325 328 333
346 346 347 346 346 343 342 340 339 338 337 337 336 336 337 336 335 335 333 333 331 333 336 337 337 336 335 334 333 332 331 331 333 330 329 331 331 330 331 331 331 329 329 330 330 330 330 331 332 330 332 333 332 332 333 333 332 332 331 322 322 323 330
343 344 343 343 343 343 341 341 339 338 337 337 337 337 336 338 336 335 334 331 334 336 338 338 336 336 335 334 333 333 332 332 331 330 326 329 330 330 328 331 330 330 330 329 329 330 329 330 331 330 330 331 333 334 334 335 334 337 336 329 320 320 323
345 345 344 344 344 342 341 340 341 339 338 337 337 337 338 337 336 335 333 332 336 337 339 337 337 336 334 333 333 332 333 331 331 330 330 330 331 329 329 329 329 329 329 330 329 329 329 330 330 330 329 328 329 330 332 334 338 334 338 336 323 319 318
343 343 343 343 341 342 341 339 338 339 337 337 336 338 339 339 336 335 333 334 337 338 337 336 335 334 332 332 332 332 333 332 331 331 330 330 330 328 328 327 328 327 328 329 328 329 328 330 328 328 328 328 329 330 332 335 336 335 337 337 336 323 318
342 342 342 342 342 341 341 340 338 338 336 336 337 339 341 340 338 335 335 337 338 338 338 335 333 332 331 330 333 332 333 331 331 332 331 331 329 329 329 328 328 327 329 329 329 328 328 328 326 326 327 329 329 329 331 333 336 337 337 338 340 335 324
340 341 340 341 342 341 341 339 336 336 336 335 337 338 339 339 339 339 339 339 338 336 335 333 332 332 332 330 331 331 332 330 330 330 331 330 329 328 328 328 327 327 328 328 327 327 327 326 326 326 325 327 328 330 333 332 335 336 338 342 340 338 337
341 340 342 343 342 342 341 340 338 336 336 337 338 339 339 340 340 340 339 338 336 334 332 331 329 328 329 328 329 330 329 327 328 329 329 329 328 323 323 325 324 323 326 326 326 325 325 326 327 327 326 326 327 329 330 331 332 334 335 337 338 337 338
342 342 342 341 341 343 341 341 339 338 336 337 340 339 340 340 340 340 339 338 336 335 332 329 329 329 329 329 329 328 330 327 327 328 327 328 328 326 327 326 322 323 324 325 328 329 327 328 332 331 328 326 328 329 328 327 327 332 321 332 317 324 325
342 342 341 341 341 342 342 342 341 338 336 338 339 339 339 339 341 340 339 339 338 337 335 333 331 331 330 331 329 328 328 329 327 327 327 325 325 325 327 329 325 328 335 332 334 327 316 319 333 336 336 333 334 333 332 329 332 320 309 307 306 307 308
341 341 340 340 340 340 341 340 340 339 338 338 339 339 339 339 338 339 339 339 339 338 336 335 333 332 331 331 328 328 328 327 327 328 329 328 327 325 324 324 327 311 311 317 327 320 313 310 309 310 314 327 327 328 322 320 315 310 307 307 307 306 305
342 341 340 340 340 340 340 339 339 338 338 338 338 339 339 337 337 340 338 340 339 338 338 337 335 332 332 330 329 332 334 328 329 330 328 328 332 330 329 326 327 330 313 308 311 311 307 305 304 304 306 308 313 324 326 320 313 309 308 307 305 304 302
Wind_Speed
10 10 11 11 12 13 15 14 15 15 15 14 13 14 14 12 12 12 12 14 14 13 12 12 11 10 10 8 8 6 5 6 4 4 5 5 3 5 7 4 6 4 4 6 6 6 4 4 5 6 5 6 5 4 4 3 4 6 4 3 4 4 3
10 11 12 13 14 12 11 12 7 8 13 14 14 15 12 14 12 13 12 13 14 14 13 13 12 10 9 8 7 7 6 7 6 5 3 5 5 5 3 3 4 2 6 6 6 3 3 4 3 4 6 6 5 3 4 4 4 4 2 3 3 3 4
5 8 13 12 12 12 13 11 12 9 13 14 14 14 14 14 14 13 13 15 14 13 13 13 12 11 10 9 8 9 7 6 7 8 8 7 6 7 4 4 3 4 6 7 4 6 5 5 4 5 6 6 6 4 3 3 2 2 2 3 3 3 3
6 8 9 10 10 13 13 15 16 15 11 15 15 16 16 15 14 13 13 17 16 15 16 14 13 12 11 10 10 10 10 9 9 8 8 8 6 9 4 3 3 6 5 6 6 5 6 5 6 3 5 4 3 4 3 3 3 1 2 2 5 4 4
5 9 8 8 10 12 13 13 16 12 15 14 15 15 17 14 13 13 13 14 17 16 15 14 12 11 9 9 7 8 9 11 8 7 4 7 9 5 5 5 6 4 5 6 6 5 5 5 5 4 5 4 6 4 4 4 3 3 4 6 4 5 5
4 5 5 6 7 11 11 15 14 16 15 16 14 14 15 15 14 15 14 14 15 13 13 13 12 11 10 10 9 10 9 8 3 6 9 8 8 7 6 7 6 6 7 7 5 4 5 5 3 6 6 6 5 6 5 5 6 3 2 2 3 3 4
5 6 5 5 7 9 11 12 13 12 11 12 11 10 12 13 12 13 14 16 16 15 16 14 13 11 10 8 10 10 7 3 7 9 6 9 9 7 7 7 6 5 6 5 4 3 6 4 3 5 6 6 4 5 4 4 3 3 2 2 2 5 3
6 7 8 7 8 8 10 10 10 11 9 10 10 8 9 10 11 13 14 13 12 16 14 14 12 9 9 9 9 10 10 5 7 5 5 7 5 7 9 7 5 6 6 7 3 4 5 6 4 2 2 7 7 5 4 3 5 5 2 2 3 3 3
6 7 8 9 9 8 7 8 10 10 11 10 9 8 8 7 4 5 5 6 8 11 10 10 9 8 8 7 6 3 8 7 4 5 7 7 3 7 8 8 7 6 6 7 5 5 5 4 9 7 7 6 3 3 4 2 3 1 2 2 3 4 3
5 5 5 6 6 6 8 10 12 10 9 6 6 9 6 5 7 7 5 2 7 10 10 10 10 9 9 9 8 7 7 10 7 6 7 6 3 6 7 8 7 6 7 4 3 7 8 6 4 4 3 5 4 5 3 1 2 2 5 7 3 1 2
4 5 5 5 6 9 9 10 10 8 7 6 6 7 9 10 8 7 6 6 9 10 8 8 8 9 10 10 10 9 8 9 6 4 6 5 4 6 8 7 8 7 8 5 7 7 5 4 3 2 3 4 6 5 4 2 2 4 4 4 3 2 2
5 5 6 6 9 9 9 9 8 7 8 8 8 9 10 11 8 10 12 10 8 9 8 8 7 7 8 9 11 8 8 7 6 6 6 6 6 6 8 7 7 7 6 6 7 5 4 3 2 4 5 2 5 5 3 5 4 1 3 3 3 3 5
5 6 6 9 10 8 8 9 10 9 8 8 10 12 11 11 11 10 10 11 9 5 9 8 9 7 7 9 12 9 9 10 9 7 6 7 6 6 5 7 8 8 6 5 5 6 6 5 3 5 4 2 3 4 2 4 2 1 2 1 1 3 5
6 7 8 9 9 9 9 10 10 9 10 8 8 11 12 11 11 9 9 8 9 8 9 10 10 10 8 7 10 8 10 9 10 8 5 5 5 5 6 7 6 6 5 5 3 5 7 5 4 3 6 4 2 1 4 1 3 3 2 3 2 2 4
8 7 8 9 8 8 8 9 10 11 11 11 11 12 12 12 12 11 9 8 6 5 6 7 10 9 7 9 9 8 7 7 8 7 4 5 5 4 4 6 6 7 5 5 5 5 4 3 3 2 2 5 2 3 4 4 4 1 3 2 4 4 2
11 10 7 10 9 9 9 9 10 11 13 12 13 12 11 12 10 7 9 9 6 5 4 5 6 5 8 8 8 7 7 6 6 6 5 7 5 3 2 5 3 6 5 4 3 1 1 3 2 3 2 3 4 3 2 5 3 6 7 4 3 2 2
7 8 7 8 10 11 11 11 11 11 12 13 12 11 11 12 12 8 8 9 8 6 8 6 5 5 9 8 7 7 7 6 7 6 5 6 4 3 3 5 3 4 5 3 3 2 3 2 1 2 1 4 4 1 4 4 6 8 4 3 2 2 1
3 5 9 8 10 11 11 10 10 10 9 11 13 12 9 8 10 8 7 7 5 4 6 4 4 7 7 6 7 7 7 6 7 6 6 6 4 3 3 2 5 2 5 4 3 1 2 3 2 2 4 3 5 3 4 4 8 6 5 2 1 2 1
10 6 7 8 13 12 11 11 11 12 11 10 10 9 10 11 11 9 8 8 8 5 4 4 5 6 6 6 7 7 6 6 7 6 6 5 4 3 3 2 6 2 4 3 4 3 2 2 2 2 2 2 3 2 2 6 8 6 7 4 3 0 2
10 6 7 7 12 14 14 11 10 11 11 10 10 9 10 10 10 9 8 9 8 6 6 6 6 6 6 6 7 6 5 8 7 6 6 5 5 4 5 3 5 4 3 2 2 3 4 4 3 2 2 3 3 3 4 3 8 8 6 5 2 2 3
6 6 5 8 12 14 14 14 13 12 11 11 11 11 11 10 11 10 9 10 9 8 7 6 7 6 6 7 7 6 6 8 6 7 6 5 5 4 5 4 5 4 4 5 3 2 2 3 4 2 3 2 3 4 6 3 10 7 7 6 5 5 5
4 3 6 8 11 14 16 15 15 14 12 12 12 11 11 11 11 11 11 11 10 8 8 8 7 7 7 7 7 6 6 7 6 6 5 5 5 6 5 4 4 4 3 3 4 6 5 3 2 3 3 3 4 3 5 4 9 8 6 6 6 7 4
3 7 7 8 13 14 15 14 14 14 13 12 12 13 13 12 12 12 12 11 11 9 9 8 8 8 7 7 7 6 6 6 6 7 6 5 6 5 4 5 3 3 2 2 4 3 6 5 3 4 4 3 3 3 3 3 7 8 7 7 7 5 4
8 4 7 6 14 16 13 12 12 13 13 14 14 13 12 13 12 12 12 11 10 10 9 9 8 8 7 7 7 6 6 6 6 7 7 5 7 7 4 4 4 3 3 3 3 3 3 3 5 4 3 4 4 5 5 4 8 9 9 9 8 7 3
3 4 6 12 16 15 15 13 13 13 14 14 14 12 13 14 14 13 12 11 11 10 10 9 8 8 8 8 7 7 7 6 6 6 6 6 4 6 3 5 4 4 2 3 3 3 2 4 3 2 3 3 3 6 3 3 4 11 10 10 9 6 3
3 3 8 12 13 15 14 13 12 13 14 14 15 14 14 14 13 13 12 12 12 11 11 10 9 9 8 8 8 8 8 8 7 9 8 7 4 3 4 4 4 3 4 3 3 4 4 4 4 4 3 2 3 2 3 4 4 8 12 11 10 9 4
8 6 7 11 12 14 13 12 12 13 14 13 15 14 14 13 13 13 12 11 10 11 9 9 9 9 9 8 8 6 5 8 5 5 4 5 5 6 4 3 4 3 4 4 5 4 4 4 4 1 2 3 2 3 3 4 4 5 12 12 11 10 8
8 8 8 10 11 11 10 11 13 13 13 14 15 15 14 13 12 12 11 10 11 10 9 9 9 9 9 9 9 8 6 5 7 5 5 5 4 4 2 3 3 4 4 4 4 5 5 4 4 3 3 3 3 4 4 5 9 4 9 12 11 10 10
10 11 11 10 10 9 9 10 12 14 14 14 15 14 13 13 13 11 11 12 11 10 9 9 9 9 9 7 6 7 8 5 6 6 6 5 4 4 4 3 4 4 4 4 5 5 5 5 4 3 3 4 4 4 5 4 5 8 6 9 11 11 11
9 11 11 10 10 9 9 9 9 12 13 13 13 13 13 13 12 10 12 13 10 9 9 10 9 9 9 8 8 6 7 8 6 5 4 5 4 3 3 4 4 4 4 4 5 5 4 4 5 4 4 5 5 6 5 5 5 7 10 7 12 12 12
10 9 9 11 10 10 10 9 10 10 13 12 14 11 10 10 11 12 14 11 10 9 10 11 10 9 9 9 8 7 6 7 6 5 4 6 5 4 4 5 5 6 5 5 5 4 5 5 5 5 6 6 5 6 6 6 5 5 6 10 10 12 12
9 8 8 9 10 10 9 10 9 10 13 12 12 10 9 10 12 13 11 11 10 10 11 9 9 9 10 9 7 7 5 5 5 5 5 5 5 5 4 5 5 5 5 6 5 5 6 5 5 6 5 5 6 6 6 5 4 4 4 5 6 8 12
8 11 10 10 9 9 9 11 9 8 10 13 12 11 11 11 11 11 10 9 11 11 10 8 8 8 7 7 7 7 6 7 5 5 5 5 5 4 4 5 5 5 6 6 6 6 7 6 6 6 5 6 6 6 5 4 4 4 4 3 1 2 4
6 8 9 10 10 10 10 10 11 11 9 9 9 8 9 9 10 11 12 11 12 11 10 10 9 10 10 11 9 7 8 7 9 8 5 5 5 5 6 6 6 7 6 6 6 7 7 6 6 5 5 6 6 5 5 5 4 4 4 2 1 2 2
6 7 9 8 8 8 8 10 11 11 9 7 6 7 6 8 8 9 11 10 10 9 10 9 11 9 10 9 7 7 7 7 8 6 7 5 6 6 5 5 7 8 7 8 9 8 7 6 5 4 4 6 6 5 4 3 4 3 4 3 1 4 4
7 9 10 7 5 7 8 8 11 12 11 8 7 5 5 6 6 6 9 9 9 11 9 9 9 10 8 6 6 7 8 7 8 7 7 8 7 6 6 9 11 4 2 3 5 7 6 3 3 2 2 4 5 5 5 4 2 2 8 11 10 9 8
9 8 7 6 6 8 7 8 10 11 10 9 7 7 6 6 8 8 10 9 8 8 9 9 8 7 6 6 7 8 8 9 10 9 7 6 7 8 7 6 8 12 12 10 9 8 8 5 6 7 6 3 5 7 13 14 15 16 15 16 16 15 15
9 9 8 7 7 8 9 10 10 11 10 9 8 8 7 9 10 9 9 8 9 10 9 8 8 7 6 8 8 10 9 7 6 6 9 5 3 4 5 5 5 6 11 14 12 11 10 10 10 10 10 10 9 7 8 11 13 15 16 15 13 13 12
Wind_Direction
165 163 160 165 171 175 170 165 169 170 169 164 170 178 170 168 164 164 165 169 163 161 155 149 150 153 151 146 151 150 140 125 143 149 154 152 148 124 135 166 148 137 175 101 71 68 61 79 88 92 89 70 60 71 37 48 36 57 57 39 25 341 2
169 175 158 169 175 159 148 143 131 169 168 164 166 176 167 170 166 168 165 170 162 159 156 153 149 147 141 142 154 140 154 141 157 164 139 90 106 84 115 129 124 145 79 88 100 111 141 96 84 115 129 107 94 77 75 43 74 76 70 83 63 22 0
185 149 151 169 170 150 139 144 151 193 177 167 168 167 165 174 173 169 165 169 159 153 154 148 149 145 143 158 152 147 156 159 161 172 134 135 165 136 125 99 156 149 114 109 129 140 102 79 67 42 47 56 61 56 70 79 36 90 144 136 98 80 48
115 132 138 151 162 144 151 156 172 181 183 170 168 165 165 170 169 171 173 168 157 155 154 155 151 147 152 157 150 154 168 165 175 179 158 164 163 112 127 172 98 96 139 150 138 112 103 105 97 79 88 101 99 99 90 66 55 1 327 151 145 117 65
139 147 165 166 172 149 157 166 173 172 180 168 165 169 171 166 171 171 174 162 160 158 153 148 151 149 148 149 149 158 162 174 173 191 128 106 103 125 156 151 128 135 90 95 90 109 139 139 144 138 150 155 147 151 125 105 89 33 12 17 52 68 65
181 151 138 156 140 146 161 168 172 173 179 163 171 175 169 169 172 173 165 159 160 152 147 142 146 146 149 152 154 159 169 179 183 100 104 123 125 141 172 127 127 115 144 127 132 132 167 149 158 169 189 175 102 82 70 99 109 83 63 62 347 29 83
159 156 159 159 141 149 158 164 168 173 166 155 164 170 164 168 172 168 165 168 158 140 147 148 148 147 156 149 157 167 149 147 92 111 127 129 137 159 139 124 131 169 120 117 123 147 82 55 48 48 55 67 80 85 91 347 46 115 128 22 236 170 197
172 159 168 148 144 159 166 167 164 148 137 142 154 147 161 170 172 168 174 168 147 146 147 151 146 149 154 151 157 164 135 129 87 134 133 127 153 149 126 142 168 119 117 119 104 103 114 127 135 120 139 91 67 72 60 57 27 57 33 343 341 360 20
172 167 167 165 163 160 162 132 116 119 130 139 148 152 164 165 156 104 100 133 137 128 132 144 143 143 145 134 96 46 118 159 118 137 147 130 186 124 139 149 128 127 130 125 134 143 161 126 70 52 61 65 73 59 77 88 133 116 102 9 5 328 40
169 155 119 130 142 115 100 108 122 127 130 131 140 159 128 63 48 74 90 142 149 136 147 127 137 143 114 107 146 179 195 146 149 173 137 147 147 130 154 124 134 138 119 158 156 90 73 89 97 84 94 124 134 113 152 40 349 158 177 181 142 295 20
148 128 120 149 123 112 118 125 133 130 115 111 86 96 102 89 83 75 97 79 92 94 99 103 103 119 130 137 146 167 167 140 164 157 132 143 139 157 125 142 132 131 151 174 119 102 109 93 118 207 196 179 125 131 141 135 59 304 334 42 46 333 334
179 145 137 149 115 108 122 125 120 108 95 100 96 88 87 95 86 96 95 88 94 116 106 108 111 109 126 149 147 129 134 143 155 134 143 150 156 135 142 142 134 144 147 103 100 123 131 114 177 158 228 250 115 125 131 153 185 64 2 17 1 19 340
166 135 143 124 131 110 103 112 107 96 84 85 95 96 92 90 91 89 97 115 118 117 118 120 121 140 156 165 138 138 141 152 149 143 159 156 147 143 145 140 150 144 125 118 150 190 141 153 220 200 187 78 300 113 91 77 9 255 174 106 31 1 15
121 120 119 119 122 133 134 128 113 104 103 94 91 92 95 95 88 81 110 130 127 146 144 142 145 160 186 148 131 143 151 153 150 153 165 142 131 153 157 149 140 122 113 120 195 234 142 179 166 150 137 152 139 217 108 201 206 245 236 100 332 82 10
135 132 137 131 138 135 126 133 131 119 115 115 102 96 100 108 120 146 145 124 127 155 151 141 152 170 159 126 139 149 151 143 143 150 160 124 134 171 157 142 149 126 137 141 210 244 135 178 155 216 156 146 187 147 185 189 218 222 54 9 58 56 38
147 154 171 148 149 150 140 138 135 122 125 120 112 114 121 124 124 137 134 129 135 153 145 153 162 162 132 136 143 148 137 143 139 143 160 127 149 175 156 127 177 135 145 145 243 170 34 30 40 303 227 174 182 217 188 208 227 101 82 55 86 44 345
165 160 163 179 146 149 152 156 139 127 123 124 122 129 136 137 139 146 137 139 155 157 144 167 172 132 133 141 146 127 129 135 130 141 134 133 153 179 163 146 170 121 130 137 240 164 97 304 173 266 350 344 316 25 14 96 90 91 98 78 54 67 348
217 187 161 173 147 146 153 144 137 118 122 133 142 145 140 132 137 128 132 128 124 135 148 164 142 128 130 134 122 119 131 141 131 139 129 143 157 169 172 169 137 189 136 155 214 181 184 160 278 327 348 331 15 349 143 106 130 139 150 166 111 76 291
306 215 179 165 142 145 152 150 128 127 141 147 148 144 143 140 138 137 134 130 131 144 129 131 127 123 125 123 121 123 147 128 132 134 137 150 152 172 142 207 144 207 137 179 173 187 240 131 222 186 231 296 293 291 260 153 152 161 166 164 126 49 290
234 204 184 166 148 151 146 129 131 142 156 154 142 130 139 138 134 134 135 125 127 127 145 143 132 128 127 124 122 134 143 120 136 140 154 174 146 190 144 223 129 166 164 262 202 185 167 233 200 221 158 236 277 311 303 146 165 168 158 145 163 211 265
201 200 166 176 151 146 145 145 150 148 153 158 140 132 137 138 139 137 127 128 136 153 155 132 131 132 129 128 132 148 144 137 157 156 154 162 145 186 149 215 145 191 179 189 201 207 219 190 230 211 189 220 237 252 260 147 162 166 168 174 183 228 248
249 189 187 152 157 148 147 152 155 157 154 155 145 141 144 144 146 140 137 145 152 154 148 140 140 140 140 140 151 161 152 152 148 144 153 159 161 170 182 193 148 200 204 214 192 185 177 210 206 247 211 195 219 241 271 152 175 176 180 184 200 225 255
247 229 157 145 136 138 144 151 152 151 149 151 154 150 150 149 150 149 150 154 156 153 149 148 147 148 147 148 161 159 149 153 150 151 156 168 163 210 190 155 156 199 231 217 263 232 179 175 212 217 210 214 203 224 238 238 177 181 193 198 212 211 253
358 57 143 149 122 134 139 142 146 144 150 154 158 156 149 152 154 152 155 156 156 154 150 151 151 148 150 153 156 154 146 159 161 153 162 196 167 194 192 148 150 211 190 241 243 267 265 203 205 213 206 200 208 215 209 239 175 187 199 215 210 220 262
21 210 117 118 126 138 142 142 145 146 152 155 150 152 154 158 156 153 159 159 157 155 152 152 149 149 152 151 153 157 158 150 169 156 161 191 206 175 184 152 167 191 235 237 256 264 297 293 273 246 238 205 215 234 248 287 195 185 210 217 215 219 242
276 150 124 126 136 136 135 135 140 149 154 156 152 152 157 159 159 161 162 161 157 156 157 156 153 152 147 154 158 165 154 172 200 159 175 164 159 197 236 154 164 166 220 229 237 238 230 247 254 243 260 210 182 181 218 213 229 204 210 215 218 215 234
175 150 149 138 130 128 133 144 150 156 158 155 156 155 160 162 163 164 162 158 159 162 161 154 157 148 151 154 155 167 166 149 142 145 156 148 170 201 211 145 163 197 215 219 237 254 245 238 254 322 353 308 301 273 258 245 234 232 195 214 216 214 219
128 128 127 127 122 136 147 150 151 154 157 153 162 161 166 167 164 164 159 162 162 166 159 151 155 152 149 167 159 151 141 156 143 160 157 154 167 180 167 170 200 210 219 238 235 241 252 273 281 297 304 296 283 278 273 269 262 252 201 206 211 213 206
125 126 126 133 145 148 156 152 157 154 156 159 164 166 170 174 165 167 165 169 170 160 156 150 155 152 157 162 148 143 148 153 141 170 164 154 172 180 196 180 211 214 233 229 241 248 243 249 263 269 268 269 262 259 258 255 265 255 249 208 209 212 215
139 138 144 152 153 158 156 159 163 153 151 161 165 171 172 176 165 162 170 170 162 168 153 152 158 157 163 162 157 169 150 151 169 183 144 143 147 193 207 201 206 228 236 237 240 239 249 258 258 265 262 260 258 256 247 245 244 242 242 229 204 217 216
143 161 160 161 154 152 153 160 158 148 152 161 165 170 171 169 166 170 173 169 163 177 155 155 160 163 166 163 160 171 193 154 181 150 159 150 172 178 209 217 214 226 223 234 234 242 255 250 240 229 234 243 257 261 259 249 237 243 244 245 233 215 219
149 156 161 152 150 159 157 152 155 156 150 162 173 166 169 169 165 166 171 164 167 163 152 156 156 165 167 162 159 166 176 170 183 162 164 163 170 196 203 218 210 219 229 224 233 243 250 248 252 262 257 245 237 247 256 261 258 257 258 256 247 229 221
164 158 162 163 157 165 156 147 156 162 167 161 174 173 172 178 165 164 163 155 146 145 148 153 159 163 156 157 159 172 180 183 181 181 181 182 173 197 206 218 211 214 227 224 222 229 230 232 237 243 257 258 265 254 241 246 256 258 267 295 11 256 257
156 153 153 153 156 173 161 152 161 160 166 160 161 168 177 182 177 170 161 147 158 149 152 160 171 173 171 167 170 171 184 185 195 193 178 187 195 209 210 209 217 214 214 228 229 228 231 238 237 235 242 261 263 258 243 245 241 243 259 259 265 266 251
149 133 134 143 155 162 167 156 155 158 148 150 143 163 171 176 178 170 164 151 154 148 160 169 181 188 179 181 169 174 188 193 188 197 204 185 189 213 234 223 207 218 223 205 211 215 227 234 227 218 243 260 269 283 295 274 287 329 50 28 353 311 312
144 137 134 141 169 162 165 157 150 149 144 145 154 157 173 175 154 165 166 164 172 158 168 178 186 188 184 172 183 180 184 202 204 194 208 198 197 206 213 247 264 259 277 306 31 24 32 31 270 275 327 315 304 302 302 308 333 336 308 298 294 290 272
147 140 136 146 154 160 159 150 151 153 143 149 153 156 175 158 164 172 172 178 176 168 168 184 188 183 164 170 187 198 196 204 206 187 194 199 182 196 214 209 224 249 243 246 255 257 267 262 281 295 289 265 278 291 297 304 302 302 303 306 301 299 296
141 142 143 155 143 143 141 140 144 143 147 152 168 164 174 173 175 175 176 178 175 181 177 183 184 174 168 182 202 202 197 205 224 183 168 191 193 237 211 208 225 204 230 233 238 246 237 239 241 243 247 254 250 257 282 276 277 275 276 273 278 278 282